Weather in Kulikovo

Russia / Omsk Oblast     55°02′46″N   74°27′17″E
temp.,
°C
wind,
m/s
gust,
m/s
humid.,
%
clouds,
%
prec.,
mm/h
press.,
hPa
HPBL,
m
18 may, tue
tue1800:00+21w412445 0.0 1010205
03:00+18wnw49460 0.0 1010165
06:00+16nw38685 0.1 1010154
09:00+22nw584916 0.1 1009661
12:00+26nw683662 0.1 10091827
15:00+27nw692899 0.0 10083205
18:00+20sw7106599 0.4 1007553
21:00+17ne81181100 0.9 1008526
19 may, wed
wed1900:00+13nne6986100 0.9 1010532
03:00+12nne61079100 0.0 1011685
06:00+10nne6118097 0.0 1014665
09:00+12nne6964100 0.0 1015809
12:00+16nne783826 0.0 10162150
15:00+17n783177 0.0 10172488
18:00+16n793699 0.0 10172265
21:00+12n49436 0.0 1018268
20 may, thu
thu2000:00+9n3551100 0.0 102077
03:00+7n486213 0.0 1020182
06:00+6nne487437 0.0 1021406
09:00+10n5646100 0.0 10231280
12:00+12n5629100 0.0 10231588
15:00+13nnw5628100 0.0 10231655
18:00+11nnw5544100 0.0 10231374
21:00+9ese0166100 0.1 1023321
21 may, fri
fri2100:00+8s3481100 1.0 1023279
03:00+8sse51082100 0.5 1022469
06:00+8sse61075100 0.6 1022477
09:00+10sse586598 0.0 1023472
12:00+15sse565021 0.0 10231030
15:00+18sse444443 0.0 10231473
18:00+18sse324433 0.0 10231576
21:00+14s33615 0.0 102433
22 may, sat
sat2200:00+11s347083 0.0 102462
03:00+10ssw34735 0.0 102463
06:00+11sw367297 0.0 1025126
09:00+16wsw455124 0.0 1024525
12:00+22w343931 0.0 1023904
15:00+26w443334 0.0 10221241
18:00+26wnw443311 0.0 10221261
21:00+21w335023 0.0 102223